Location: Newark
(42.7133°N, 87.7910°W)
Time: 13:48:52
(UTC+00:00)

Vanguard 1 - All Passes

Search period start: 20 September 2019 00:00
Search period end: 30 September 2019 00:00
Orbit: 654 x 3830 km, 34.3° (Epoch: 19 September)

Date Brightness Start Highest point End Pass type
(mag) Time Alt. Az. Time Alt. Az. Time Alt. Az.
20 Sep - 04:26:06 10° SSE 04:38:23 18° SE 04:50:41 10° E visible
20 Sep - 06:40:56 10° SSW 07:01:42 43° SSE 07:19:20 10° E visible
20 Sep - 09:04:03 10° WSW 09:26:43 62° S 09:41:50 10° E visible
20 Sep - 11:31:07 10° W 11:50:50 59° SSW 12:02:03 10° ESE daylight
20 Sep - 13:59:23 10° W 14:11:53 31° SW 14:19:37 10° SSE daylight
21 Sep - 04:43:33 10° S 04:58:57 24° SE 05:14:24 10° E visible
21 Sep - 07:01:09 10° SW 07:22:48 49° SSE 07:40:46 10° E visible
21 Sep - 09:25:20 10° WSW 09:48:03 65° S 10:02:51 10° E visible
21 Sep - 11:52:48 10° W 12:11:50 55° SSW 12:22:42 10° SE daylight
21 Sep - 14:21:36 10° W 14:32:13 24° SW 14:39:15 10° S daylight
22 Sep - 05:02:12 10° S 05:19:36 31° SE 05:37:02 10° E visible
22 Sep - 07:21:42 10° SW 07:44:00 55° SSE 08:02:05 10° E visible
22 Sep - 09:46:46 10° WSW 10:09:22 66° S 10:23:49 10° ESE visible
22 Sep - 12:14:32 10° W 12:32:42 49° SSW 12:43:13 10° SE daylight
22 Sep - 14:44:23 10° W 14:52:23 17° SW 14:58:16 10° SSW daylight
23 Sep - 03:12:44 10° SE 03:18:14 11° SE 03:23:56 10° ESE visible
23 Sep - 05:21:33 10° SSW 05:40:22 37° SE 05:59:07 10° E visible
23 Sep - 07:42:31 10° WSW 08:05:17 60° SSE 08:23:19 10° E visible
23 Sep - 10:08:18 10° W 10:30:39 65° S 10:44:43 10° ESE visible
23 Sep - 12:36:20 10° W 12:53:25 42° SSW 13:03:33 10° SSE daylight
23 Sep - 15:08:53 10° WSW 15:12:26 11° WSW 15:15:31 10° SW daylight
24 Sep - 03:27:07 10° SSE 03:38:32 18° SE 03:50:56 10° E visible
24 Sep - 05:41:23 10° SSW 06:01:15 44° SSE 06:20:52 10° E visible
24 Sep - 08:03:33 10° WSW 08:26:38 64° S 08:44:28 10° E visible
24 Sep - 10:29:53 10° W 10:51:52 62° SSW 11:05:32 10° ESE visible
24 Sep - 12:58:17 10° W 13:13:56 35° SW 13:23:37 10° SSE daylight
25 Sep - 03:44:42 10° S 03:58:55 24° SE 04:14:46 10° E visible
25 Sep - 06:01:35 10° SW 06:22:16 51° SSE 06:42:24 10° E visible
25 Sep - 08:24:46 10° WSW 08:48:03 67° S 09:05:34 10° E visible
25 Sep - 10:51:32 10° W 11:12:57 58° SSW 11:26:13 10° SE visible
25 Sep - 13:20:29 10° W 13:34:16 28° SW 13:43:20 10° S daylight
26 Sep - 04:03:26 10° S 04:19:23 31° SE 04:37:30 10° E visible
26 Sep - 06:22:06 10° SW 06:43:24 57° SSE 07:03:48 10° E visible
26 Sep - 08:46:06 10° WSW 09:09:27 67° S 09:26:37 10° ESE visible
26 Sep - 11:13:15 10° W 11:33:54 52° SSW 11:46:47 10° SE visible
26 Sep - 13:43:10 10° W 13:54:28 21° SW 14:02:30 10° S daylight
27 Sep - 02:15:55 10° SE 02:18:47 10° ESE 02:21:45 10° ESE night (unlit)
27 Sep - 04:22:49 10° SSW 04:39:58 38° SE 04:59:41 10° E visible
27 Sep - 06:42:52 10° WSW 07:04:40 62° SSE 07:25:08 10° E visible
27 Sep - 09:07:33 10° W 09:30:49 66° S 09:47:36 10° ESE visible
27 Sep - 11:35:02 10° W 11:54:41 45° SSW 12:07:07 10° SE daylight
27 Sep - 14:06:51 10° W 14:14:32 15° SW 14:20:38 10° SSW daylight
28 Sep - 02:29:09 10° SSE 02:38:54 16° SE 02:50:11 10° E visible
28 Sep - 04:42:40 10° SSW 05:00:43 44° SE 05:21:31 10° E visible
28 Sep - 07:03:50 10° WSW 07:26:02 65° S 07:46:24 10° E visible
28 Sep - 09:29:04 10° W 09:52:07 64° SSW 10:08:28 10° ESE visible
28 Sep - 11:56:56 10° W 12:15:17 38° SW 12:27:12 10° SSE daylight
29 Sep - 02:46:44 10° S 02:59:06 23° SE 03:14:13 10° E visible
29 Sep - 05:02:53 10° SW 05:21:38 51° SSE 05:43:10 10° E visible
29 Sep - 07:24:57 10° WSW 07:47:28 67° S 08:07:36 10° E visible
29 Sep - 09:50:38 10° W 10:13:18 59° SSW 10:29:13 10° SE visible
29 Sep - 12:19:06 10° W 12:35:42 31° SW 12:46:57 10° SSE daylight
